Kezdőlap
METAR-TAF:

METAR-TAF

Repülőterek :

Airlake Airport

Minneapolis-Lakeville, Minnesota, Amerikai Egyesült Államok

földrajzi szélesség: 44-37-40N, földrajzi hosszúság: 093-13-41W, magasság: 293 m

Jelenlegi meteorológiai megfigyelések

A jelentés 23 perccel ezelõtt készült, 20:16 UTC
Déli szél 7 kt
Hőmérséklet 5°C
Páratartalom 70%
Légköri nyomás 1013 hPa
Látótávolság: 16.1 km
Derült ég

METAR: KLVN 222016Z AUTO 18007KT 10SM CLR 05/00 A2991 RMK AO2

Idő: 14:39 (20:39 UTC)


TAF: hiányzik

Meteorológiai megfigyelések és előrejelzések több, mint 4000 repülőtéren (METAR és TAF jelentéseket).

A térképen piros és sárga pontok jelzik az elérhető meteorológiai állomásokat.

Mozgassa az egeret a pont fölött, hogy megjelenjen az állomás neve.

Azután kattintson az időjárási megfigyelések és előrejelzések megtekintéséhez.

A térkép megváltoztatása: kattintson a fekete keresztel jelölt zöld gombra ráközelítéshez, a vonallal jelölt zöld gombra távolításhoz, vagy a zöld nyilakra a szomszédos térképek eléréséhez.


METAR-TAF: